カタログに戻る

CZ-6A DEB

運用中PO
NORAD 56591·DEBRIS·🇨🇳 China

打ち上げ Nov 11, 2022 から Taiyuan Satellite Launch Center

Loading…

次のパス (今後24時間)

TLE

最新Source: Space-Track

元期: Sep 14, 2026, 01:00 UTC

1 56591U 22151ADP 26257.04176331  .00000093  00000-0  13828-3 0  9991
2 56591  99.0950 172.7930 0290215  72.6709 290.5957 13.57819726168033

AllMySatでCZ-6A DEBをリアルタイム追跡

Download on the App Store